Resoconti di bolidi

Aug 01, 2019 - Aug 31, 2019
Trovati resoconti: 2071  in August 2019  Pagina 22 / 42
IDDate e tempo T.U. (Tempo Universale)Data e tempo localeRegioneCittàStatoDur.MagnitudineSuono differitoSuono contemporaneoFrag.OsservatoreLivello di esperienza
Evento 3842-2019
3842aa2019-08-17 19:25 UT2019-08-17 21:25 CESTCH LenkBern≈3,5s -19---MarcA 1
3842ab2019-08-17 19:25 UT2019-08-17 21:25 CESTFR NeffesProvence-Alpes-Côte d'Azur≈1,5s -14---ManonA 1
3842ac2019-08-17 19:35 UT2019-08-17 21:35 CESTFR Marcy-l'ÉtoileAuvergne-Rhône-Alpes≈3,5s -8---DominiqueS 1
3842ad2019-08-17 19:00 UT2019-08-17 21:00 CESTFR Soucieu-en-JarrestAuvergne-Rhône-Alpes≈1,5s -8---Arnaud Y 1
3842ae2019-08-17 19:28 UT2019-08-17 21:28 CESTFR ValenceAuvergne-Rhône-Alpes≈1,5s -6---ArjanV 2
3842af2019-08-17 19:20 UT2019-08-17 21:20 CESTFR ChessyAuvergne-Rhône-Alpes≈1,5s -13---AnaïsL 1
3842ag2019-08-17 19:30 UT2019-08-17 21:30 CESTFR JausiersProvence-Alpes-Côte d'Azur≈3,5s -16---AnnaC 1
3842ah2019-08-17 19:25 UT2019-08-17 21:25 CESTFR Saint-ChamondAuvergne-Rhône-Alpes≈1,5s -28---StephaneE 3
3842ai2019-08-17 19:28 UT2019-08-17 21:28 CESTFR Portes-lès-ValenceAuvergne-Rhône-Alpes≈1,5s -13???ManonP 1
3842aj2019-08-17 19:25 UT2019-08-17 21:25 CESTFR Francillon-sur-RoubionAuvergne-Rhône-Alpes≈1,5s -11???emileG 1
3842ak2019-08-17 20:00 UT2019-08-17 22:00 CESTFR Monistrol-sur-LoireAuvergne-Rhône-Alpes≈1,5s -27---Philippe Z 1
3842al2019-08-17 19:33 UT2019-08-17 21:33 CESTFR RansBourgogne-Franche-Comté≈1,5s -13--?GuillaumeJ 3
3842am2019-08-17 19:25 UT2019-08-17 21:25 CESTFR BesançonBourgogne-Franche-Comté≈1,5s -11--?VirginieT 1
3842an2019-08-17 19:20 UT2019-08-17 21:20 CESTFR MenoteyBourgogne-Franche-Comté<1s -11---AlineA 2
3842ao2019-08-17 19:25 UT2019-08-17 21:25 CESTFR Lantenne-VertièreBourgogne-Franche-Comté≈3,5s -13---ChristopheC 5
3842ap2019-08-17 19:25 UT2019-08-17 21:25 CESTFR BeauxAuvergne-Rhône-Alpes≈1,5s -14--ClémentineP 1
3842aq2019-08-17 19:32 UT2019-08-17 21:32 CESTFR Saint-RestitutAuvergne-Rhône-Alpes≈1,5s -6--?JeanG 2
3842ar2019-08-17 19:45 UT2019-08-17 21:45 CESTFR BédoinProvence-Alpes-Côte d'Azur≈1,5s -10---NathanC 2
3842as2019-08-17 19:25 UT2019-08-17 21:25 CESTCH Gambarogno TITessin≈3,5s -20-?-Christine D 1
3842at2019-08-17 19:26 UT2019-08-17 21:26 CESTFR Saint-Michel-l'ObservatoireProvence-Alpes-Côte d'Azur≈1,5s -7---olivierL 5
3842au2019-08-17 19:15 UT2019-08-17 21:15 CESTCH LocarnoTicino≈3,5s -13---MartinF 3
3842av2019-08-17 19:27 UT2019-08-17 21:27 CESTFR VillefranconBourgogne-Franche-Comté≈7,5s -14---SD 1
3842aw2019-08-17 19:24 UT2019-08-17 21:24 CESTFR ChadronAuvergne-Rhône-Alpes≈1,5s -16--DenisB 4
3842ax2019-08-17 19:30 UT2019-08-17 21:30 CESTIT ComoLombardia≈1,5s -14--?AnnalisaM 2
3842ay2019-08-17 19:30 UT2019-08-17 21:30 CESTFR BeauneBourgogne-Franche-Comté≈3,5s -27--?Sébastien H 1
3842az2019-08-17 19:20 UT2019-08-17 21:20 CESTIT MilanoLombardia≈3,5s -6??-ElenaO 1
3842b2019-08-17 20:13 UT2019-08-17 22:13 CESTCH AttalensFribourg≈1,5s -13--?MaximeR 4
3842ba2019-08-17 21:47 UT2019-08-17 21:47 ?FR IssiracOccitanie? -5---GabyN 1
3842bb2019-08-17 19:30 UT2019-08-17 21:30 CESTIT Ponna SuperioreLombardia≈1,5s -13---FabioC 2
3842bc2019-08-17 19:30 UT2019-08-17 21:30 CESTFR CarrosProvence-Alpes-Côte d'Azur≈3,5s -21--Emmanuel S 2
3842bd2019-08-17 19:26 UT2019-08-17 21:26 CESTFR BellefondBourgogne-Franche-Comté≈1,5s -13--?Loïc C 4
3842be2019-08-17 19:35 UT2019-08-17 21:35 CESTFR BussetAuvergne-Rhône-Alpes≈1,5s -5?-?KorsV 3
3842bf2019-08-17 19:25 UT2019-08-17 21:25 CESTFR Savigny-le-SecBourgogne-Franche-Comté≈3,5s -13-?Marie-PierreM 1
3842bg2019-08-17 19:30 UT2019-08-17 21:30 CESTIT Esino LarioLombardia≈1,5s -17--?GianniP 1
3842bh2019-08-17 19:25 UT2019-08-17 21:25 CESTIT Lombardia≈3,5s -6??-MilzM 1
3842bi2019-08-17 19:15 UT2019-08-17 21:15 CESTFR La BouilladisseProvence-Alpes-Côte d'Azur≈1,5s -4--?GillesS 2
3842bj2019-08-17 19:30 UT2019-08-17 21:30 CESTFR Sainte-MaximeProvence-Alpes-Côte d'Azur≈1,5s -16?--GabinR 1
3842bk2019-08-17 19:25 UT2019-08-17 21:25 CESTIT Lombardy≈3,5s -10---ANDREAB 2
3842bl2019-08-17 19:27 UT2019-08-17 21:27 CESTFR Blot-l'ÉgliseAuvergne-Rhône-Alpes≈1,5s -8??PierreF 2
3842bm2019-08-17 19:30 UT2019-08-17 21:30 CESTFR Cuges-les-PinsProvence-Alpes-Côte d'Azur≈3,5s -13---SophieM 1
3842bn2019-08-17 19:25 UT2019-08-17 21:25 CESTFR NébouzatAuvergne-Rhône-Alpes<1s -27---PascaleR 1
3842bo2019-08-17 19:27 UT2019-08-17 21:27 CESTIT MonegliaLiguria≈1,5s -10---Francesco C 2
3842bp2019-08-17 19:25 UT2019-08-17 21:25 CESTIT BresciaLombardia≈7,5s -9---AlessiaG 1
3842bq2019-08-17 19:30 UT2019-08-17 21:30 CESTFR Salles-CuranOccitanie≈1,5s -13---CécileP 2
3842br2019-08-17 19:25 UT2019-08-17 21:25 CESTIT Veneto≈1,5s -11---LucaS 2
3842bs2019-08-17 19:25 UT2019-08-17 21:25 CESTFR MensignacNouvelle-Aquitaine≈1,5s -15--?CécileH 1
3842bt2019-08-17 19:26 UT2019-08-17 21:26 CESTFR BordeauxNouvelle-Aquitaine≈1,5s -14---jean-lucV 3
3842bu2019-08-17 18:50 UT2019-08-17 20:50 CESTFR MontélimarAuvergne-Rhône-Alpes≈3,5s 0??-IsaB 1
3842bv2019-08-17 19:15 UT2019-08-17 21:15 CESTFR BesançonBourgogne-Franche-Comté? -7???MargauxG 1
3842bw2019-08-17 19:20 UT2019-08-17 21:20 CESTFR Saint-Michel-l'ObservatoireProvence-Alpes-Côte d'Azur≈1,5s -20--?AurélienC 1